User: anonymous   Login
Location: Unspecified
(0.0000°N, 0.0000°E)
Time: 10:06:50
(UTC+00:00)
Language:

STARLINK-4143 - Orbit

View from above orbital plane
View from above orbital plane
View from above satellite
View from above satellite

Ground track
Ground track

The orbit is defined by the following mean orbital elements,

1 53029U          26145.13962631 +.00000000 +00000-0 +14293-3 0 00003
2 53029  53.2132  90.9205 0001702  80.2244 279.8940 15.08845765    00
Epoch (UTC): 25 May 2026 03:21:03
Eccentricity: 0.0001702
inclination: 53.2132°
perigee height: 539 km
apogee height: 541 km
right ascension of ascending node: 90.9205°
argument of perigee: 80.2244°
revolutions per day: 15.08845765
mean anomaly at epoch: 279.8940°

The dashed part of the orbit path shows where the satellite is in the earth's shadow,  

DLR